Location: Arbon
(43.0005°N, 0.7472°E)
Time: 02:25:49
(UTC+00:00)

ERS-2 - Pass Details

Date: 07 August 2020
Orbit: 494 x 498 km, 98.6° (Epoch: 19 September)

Event Time Altitude Azimuth Distance (km) Brightness Sun altitude
Rises 03:29:26 0° 160° (SSE) 2,564 5.5 -14.1°
Reaches altitude 10° 03:31:30 10° 158° (SSE) 1,687 4.6 -13.8°
Maximum altitude 03:35:06 72° 75° (ENE) 526 2.4 -13.3°
Drops below altitude 10° 03:38:45 10° 350° (N) 1,704 5.2 -12.8°
Sets 03:40:50 0° 349° (N) 2,592 6.1 -12.5°
